SL-12 R/B(2), 18446

Orbit data source: Space-Track

SL-12 R/B(2), 18446 is space debris in GEO originally from a launch on Wed, 28 Oct 1987 UTC launched from the Tyuratam Missile And Space Complex (TTMTR). Debris objects in space refer to the collection of defunct objects orbiting the Earth. Examples of debris include non-operational satellites, rocket bodies, and fragments generated from explosions, collisions, or faulty payload assembly.

Not visible in the next 10 days
Identifier
18446, 1987-091D
Orbit
GEO
Country
Flag of CISCIS
Related business
Manufacturer
NPO Energiya
Mission
Spacecraft
Bus & Motor
BLOK DM, Unknown motor
Mass
2,440 kg wet, 2,440 kg dry
Launch date (UTC)
1987-10-28 (38 years ago)
Launch vehicle
Unknown
Launch site
Tyuratam Missile And Space Complex (TTMTR)
Object type
Payload
Rocket body
Debris
Shape & HBR
Cyl, 3.1 m
Radar Cross Section
23.597 m², Large (>1 m²)

Expand to show TLE details & history
Last TLE update: 1 day ago

TLE from 1 day ago
0 SL-12 R/B(2)
1 18446U 87091D   26071.52923007 -.00000249  00000-0  00000+0 0  9997
2 18446  10.9254 326.3349 0022325 266.4283 273.4682  1.00231918129033
Epoch: 2026-03-12T12:42Z
TLE epoch observation values (Epoch: 2026-03-12T12:42:05.478Z)
Latitude
0.06535°
Longitude
145.31806°
Altitude
35,791.48 km
Speed
3.075 km/s
True Right ascension
09h 44m 04s
True Declination
0° 03' 55"
Sunlit
Object was in daylight at epoch
Visualization orbit readout
Latitude
Unknown
Longitude
Unknown
Altitude
Unknown
Speed
Unknown
Apparent Right ascension
Unknown
Apparent Declination
Unknown
Sunlit
N/A
Visualization observer readout
Local Sidereal Time
22:56:56
Azimuth
Unknown
Elevation
Unknown
Doppler factor
Unknown
Orbital elements
Apogee altitude
35,892.949 km
Perigee altitude
35,704.629 km
Semi-major axis
42,176.926 km
Eccentricity
0.00223
Inclination
10.9254°
RAAN
326.3349°
Arg. of periapsis
266.4283°
True anomaly
273.2128°
Mean anomaly
273.4682°
Eccentric anomaly
273.3405°
Mean motion
0.25057 °/min
Orbital period
1,436.72 mins
BSTAR
0
Loading maneuver chart data...
Computing Atmospheric mass density...
Loading historical data...
Loading historical data...
Loading historical data...
Loading historical data...
Loading historical data...
Loading historical data...
Loading historical data...

Documentation

Showing up to 5 results
|